Hourly Data Report for October 05, 2015

All times are specified in Local Standard Time (LST). Add 1 hour to adjust for Daylight Saving Time where and when it is observed.

IQALUIT CLIMATE
NUNAVUT

63°44'50.000" N
68°32'40.000" W
33.50 m
2402592
71321
XFB

Download Data

Hourly Data (October 2015)
Hourly Data Report for October 5, 2015
Temp Definition
°C
Dew Point Temp Definition
°C
Rel Hum Definition
%
Wind Dir Definition
10's deg

Wind Spd Definition
km/h
Visibility Definition
km
Stn Press Definition
kPa
Hmdx Definition


Wind Chill Definition


Weather Definition


TIME
00:00 -2.9 -6.6 76 35 20   101.66   -9 LegendNANA
01:00 -3.7 -7.1 77 34 27   101.65   -11 LegendNANA
02:00 -3.1 -7.5 72 35 21   101.66   -9 LegendNANA
03:00 -3.0 -7.5 71 35 24   101.62   -10 LegendNANA
04:00 -2.9 -7.1 73 35 24   101.62   -10 LegendNANA
05:00 -2.8 -6.8 73 33 23   101.61   -9 LegendNANA
06:00 -2.7 -6.3 76 34 21   101.59   -9 LegendNANA
07:00 -2.7 -6.8 73 35 22   101.58   -9 LegendNANA
08:00 -2.6 -7.1 71 35 22   101.59   -9 LegendNANA
09:00 -2.2 -7.1 69 35 20   101.59   -8 LegendNANA
10:00 -1.9 -6.9 69 36 19   101.57   -7 LegendNANA
11:00 -1.4 -7.1 65 35 20   101.56   -7 LegendNANA
12:00 -1.2 -7.2 64 36 21   101.56   -7 LegendNANA
13:00 -1.3 -7.5 63 35 21   101.56   -7 LegendNANA
14:00 -1.1 -7.2 63 34 25   101.56   -7 LegendNANA
15:00 -1.4 -7.6 63 36 21   101.59   -7 LegendNANA
16:00 -1.7 -7.4 65 36 19   101.61   -7 LegendNANA
17:00 -2.4 -7.4 68 36 12   101.64   -7 LegendNANA
18:00 -3.9 -7.5 76 35 6   101.67   -7 LegendNANA
19:00 -3.2 -6.9 75 33 8   101.68   -6 LegendNANA
20:00 -3.2 -7.0 75 1 7   101.70   -6 LegendNANA
21:00 -3.0 -6.9 74 36 8   101.72   -6 LegendNANA
22:00 -2.8 -8.0 67 36 11   101.73   -7 LegendNANA
23:00 -2.9 -7.7 69 35 11   101.70   -7 LegendNANA

Notes on Data Quality.

Legend

  • E = Estimated
  • M = Missing
  • NA = Not Available
  • ‡ = Partner data that is not subject to review by the National Climate Archives
Date modified: